Regional Weather Roundup
Issued by NWS Albany, NY

Home | Current Version | Previous Version | Text Only | Print | Product List | Glossary On
Versions: 1 2 3 4 5 6 7 8 9 10 11 12 13 14 15 16 17 18 19 20 21 22 23 24 25 26 27 28 29 30 31 32 33 34 35 36 37 38 39 40 41 42 43 44 45 46 47 48 49 50
989
ASUS41 KALY 280510
RWRALY

NEW YORK STATE HOURLY WEATHER ROUNDUP
NATIONAL WEATHER SERVICE ALBANY NY
100 AM EDT SUN AUG 28 2016

NOTE: "FAIR" INDICATES FEW OR NO CLOUDS BELOW 12,000 FEET WITH NO
SIGNIFICANT WEATHER AND/OR NO OBSTRUCTIONS TO VISIBILITY.

NYZ032-033-038>043-046>054-057>066-NYZ062>081-082-084-280600-
EAST


CITY           SKY/WX    TMP DP  RH WIND       PRES   REMARKS
ALBANY         PTCLDY    69  66  90 CALM      30.21S
GLENS FALLS    PTCLDY    63  61  93 CALM      30.22S
POUGHKEEPSIE   CLOUDY    66  63  90 CALM      30.21F
NEWBURGH       CLEAR     68  63  83 CALM      30.24F
MONTGOMERY     CLOUDY    65  64  97 CALM      30.23S
WHITE PLAINS   PTCLDY    68  62  81 CALM      30.24R
ISLIP          CLEAR     70  67  90 E3        30.23S
NEW YORK CITY  PTCLDY    78  63  59 S6        30.22R
CENTRAL PARK   PTCLDY    75  58  55 CALM      30.25S
$$

NYZ005>009-017-018-044>046-055-056-280600-
CENTRAL


CITY           SKY/WX    TMP DP  RH WIND       PRES   REMARKS
FULTON         PTCLDY    69  65  86 CALM      30.15F
SYRACUSE       PTCLDY    68  65  90 E8        30.16F
ROME           CLEAR     66  63  90 SE6       30.20S
ELMIRA         CLEAR     64  62  93 CALM      30.19F
BINGHAMTON     CLEAR     67  62  84 SE5       30.24S
MONTICELLO     CLEAR     63  61  94 CALM      30.28S
$$

NYZ026>034-041>043-087-280600-
NORTH


CITY           SKY/WX    TMP DP  RH WIND       PRES   REMARKS
WATERTOWN      CLOUDY    64  61  90 E3        30.17S
FORT DRUM      NOT AVBL
MASSENA        CLOUDY    63  58  83 CALM      30.20F
SARANAC LAKE   PTCLDY    57  53  86 CALM      30.25S
PLATTSBURGH    MOCLDY    63  60  90 CALM      30.22S
$$

NYZ001>004-010>016-019>021-085-280600-
WEST


CITY           SKY/WX    TMP DP  RH WIND       PRES   REMARKS
BUFFALO        CLOUDY    74  63  68 SE5       30.13S
DUNKIRK        CLOUDY    79  67  66 S9        30.12S
JAMESTOWN      MOCLDY    72  63  73 S7        30.19S
WELLSVILLE     CLEAR     68  64  87 SE3       30.25S
ROCHESTER      MOCLDY    73  65  75 CALM      30.15S
PENN YAN       CLEAR     67  64  90 CALM      30.19S
$$

             KEY
       WCI = WIND CHILL INDEX
       VSB = VISIBILITY
       HX  = HEAT INDEX
$$




USA.gov is the U.S. government's official web portal to all federal, state and local government web resources and services.